Greenville, ME

6:34 PM EST on November 21, 2019 (GMT -0500)
Greenville

Weather History for KGNR - September, 2019

Change the Weather History Date:

Thursday, September 19, 2019

  Actual Average (KMLT) Record (KMLT)
Temperature  
Mean Temperature 52 °F -  
Max Temperature 68 °F 66 °F 84 °F (1946)
Min Temperature 37 °F 45 °F 29 °F (1943)
Degree Days  
Heating Degree Days 14    
Growing Degree Days 2 (Base 50)    
Moisture  
Dew Point 39 °F    
Average Humidity 65    
Maximum Humidity 97    
Minimum Humidity 34    
Precipitation  
Precipitation 0.00 in - - ()
Sea Level Pressure  
Sea Level Pressure 30.29 in    
Wind  
Wind Speed 3 mph ()    
Max Wind Speed 6 mph    
Max Gust Speed -    
Averages and records for this station are not official NWS values.
T = Trace of Precipitation, MM = Missing Value Source: Averaged Metar Reports

Daily Weather History Graph

Daily Weather History Graph

Search for Another Location

Airport or City:

Astronomy

Sep. 19, 2019 Rise Set
Actual Time 6:21 AM EDT 6:42 PM EDT
Civil Twilight 5:51 AM EDT 7:11 PM EDT
Nautical Twilight 5:16 AM EDT 7:46 PM EDT
Astronomical Twilight 4:40 AM EDT 8:22 PM EDT
Moon 9:34 PM EDT (9/19) 11:35 AM EDT (9/19)
Length of Visible Light 13h 20m
Length of Day
12h 20m
Waning Gibbous, 74% of the Moon is Illuminated
Sep 19
Waning Gibbous
Sep 21
Last Quarter
Sep 28
New
Oct 5
First Quarter
Oct 13
Full

Hourly Weather History & Observations

Time (EDT) Temp. Windchill Dew Point Humidity Pressure Visibility Wind Dir Wind Speed Gust Speed Precip Events Conditions
12:56 AM 39.9 °F 37.8 °F 35.1 °F 83% 30.35 in - NE 3.5 mph - N/A   Unknown
1:56 AM 43.0 °F 41.3 °F 35.1 °F 74% 30.33 in - NNW 3.5 mph - N/A   Unknown
2:56 AM 41.0 °F 37.1 °F 37.0 °F 86% 30.32 in - NE 5.8 mph - N/A   Unknown
3:56 AM 39.9 °F 37.8 °F 37.0 °F 89% 30.32 in - North 3.5 mph - N/A   Unknown
4:56 AM 37.9 °F - 37.0 °F 97% 30.32 in - Calm Calm - N/A   Unknown
5:56 AM 39.0 °F - 37.0 °F 93% 30.33 in - Calm Calm - N/A   Unknown
6:56 AM 41.0 °F - 36.0 °F 82% 30.34 in - Calm Calm - N/A   Unknown
7:56 AM 43.0 °F 40.3 °F 39.0 °F 86% 30.35 in - NW 4.6 mph - N/A   Unknown
8:56 AM 48.0 °F - 42.1 °F 80% 30.36 in - NW 4.6 mph - N/A   Unknown
9:56 AM 55.0 °F - 39.0 °F 55% 30.35 in - NW 4.6 mph - N/A   Unknown
10:56 AM 57.9 °F - 37.9 °F 47% 30.33 in - WNW 3.5 mph - N/A   Unknown
11:56 AM 60.1 °F - 35.1 °F 39% 30.32 in - North 3.5 mph - N/A   Unknown
12:56 PM 62.1 °F - 39.0 °F 43% 30.31 in - Variable 3.5 mph - N/A   Unknown
1:56 PM 64.0 °F - 39.9 °F 41% 30.28 in - Variable 4.6 mph - N/A   Unknown
2:56 PM 66.9 °F - 39.9 °F 37% 30.27 in - NNW 3.5 mph - N/A   Unknown
3:56 PM 66.9 °F - 37.9 °F 34% 30.26 in - Calm Calm - N/A   Unknown
4:56 PM 66.0 °F - 39.0 °F 37% 30.26 in - North 4.6 mph - N/A   Unknown
5:56 PM 60.1 °F - 42.1 °F 51% 30.25 in - Calm Calm - N/A   Unknown
6:56 PM 55.9 °F - 42.1 °F 60% 30.25 in - Calm Calm - N/A   Unknown
7:56 PM 55.9 °F - 41.0 °F 57% 30.24 in - NW 5.8 mph - N/A   Unknown
8:56 PM 52.0 °F - 41.0 °F 66% 30.24 in - Calm Calm - N/A   Unknown
9:56 PM 54.0 °F - 42.1 °F 64% 30.23 in - NNW 5.8 mph - N/A   Unknown
10:56 PM 53.1 °F - 44.1 °F 71% 30.21 in - NNW 3.5 mph - N/A   Unknown
11:56 PM 50.0 °F - 43.0 °F 77% 30.19 in - Calm Calm - N/A   Unknown